Home   Weather   Wallisellen   Past weeks

Flag for Switzerland Past Weather in Wallisellen, Zurich, Switzerland — Yesterday and Last 2 Weeks

Now
30 °F

Chilly.


Feels Like: 30 °F
Forecast: 18 / 42 °F
Wind: 2 mph from Southwest

Location: Zuerich-Fluntern

Current Time: Dec 8, 2016 at 10:53:13 am

Latest Report: Dec 8, 2016 at 10:00 am


Visibility: N/A

Pressure: 30.68 "Hg

Humidity: 98%

Dew Point: 29 °F

Location of WallisellenLocation

Past Weather in Wallisellen — Graph

°F

Wallisellen Temperature Yesterday

Maximum temperature yesterday: 30 °F (at 1:00 pm)
Minimum temperature yesterday: 25 °F (at 7:00 am)
Average temperature yesterday: 28 °F

High & Low Weather Summary for the Past Weeks

 TemperatureHumidityPressure
High52 °F (Nov 23, 3:00 pm)100% (Dec 1, 6:00 am)30.68 "Hg (Dec 1, 6:00 am)
Low25 °F (Nov 29, 8:00 am)54% (Nov 28, 1:00 pm)29.87 "Hg (Nov 25, 6:00 am)
Average36 °F85%30.28 "Hg
* Reported Nov 23 9:00 am — Dec 8 9:00 am, Wallisellen, Weather by CustomWeather, © 2016

Note: Actual official high and low records may vary slightly from our data, if they occured in-between our weather recording intervals... More about our weather records

Advertising

Wallisellen Weather History for the Previous 24 Hours

Scroll right to see more
 ConditionsComfort  
Time TempWeatherWind HumidityBarometerVisibility
9:00 am
Thu, Dec 8
29 °FChilly.2 mph97%30.68 "HgN/A
8:00 am28 °FChilly.1 mph100%30.68 "HgN/A
7:00 am29 °FChilly.2 mph97%30.68 "HgN/A
6:00 am28 °FChilly.1 mph100%30.68 "HgN/A
5:00 am28 °FChilly.1 mph100%30.67 "HgN/A
4:00 am29 °FChilly.2 mph100%30.67 "HgN/A
12:00 am29 °FChilly.1 mph99%30.68 "HgN/A
11:00 pm
Wed, Dec 7
30 °FChilly.1 mph100%30.68 "HgN/A
10:00 pm29 °FChilly.3 mph100%30.68 "HgN/A
9:00 pm30 °FChilly.2 mph97%30.68 "HgN/A
8:00 pm30 °FChilly.2 mph98%30.67 "HgN/A
7:00 pm30 °FChilly.1 mph96%30.66 "HgN/A
6:00 pm29 °FChilly.1 mph98%30.65 "HgN/A
5:00 pm29 °FChilly.1 mph95%30.63 "HgN/A
4:00 pm29 °FChilly.1 mph95%30.62 "HgN/A
1:00 pm30 °FChilly.2 mph90%30.59 "HgN/A
12:00 pm29 °FChilly.1 mph95%30.60 "HgN/A
11:00 am28 °FChilly.1 mph96%30.63 "HgN/A
10:00 am27 °FChilly.1 mph100%30.63 "HgN/A
Weather by CustomWeather, © 2016

See weather overviewHow to use our weather pages